FW6321 Weather Reports


Display with metric or nautical units.
time (UTC)temp
F
wind
direction
speed
MPH
gust
MPH
rain 1hr
in
rain 24hr
in
rain mn
in
humidity
%
barometer
mb
20260904063024 70 233 10.0 21.0 0.00 0.04 0.00 90 1011.3
20260904062526 70 191 10.0 25.0 0.00 0.04 0.00 90 1011.4
20260904062515 70 194 11.0 26.0 0.00 0.04 0.00 89 1011.5
20260904061525 70 226 10.0 26.0 0.00 0.04 0.00 89 1011.6
20260904061022 69 168 9.0 18.0 0.00 0.04 0.00 89 1011.5
20260904061004 69 233 10.0 18.0 0.00 0.04 0.00 89 1011.7
20260904060023 69 241 9.0 19.0 0.00 0.05 0.00 89 1011.7
20260904055521 69 210 9.0 21.0 0.00 0.05 0.00 89 1011.6
20260904055022 69 294 9.0 21.0 0.00 0.05 0.00 90 1011.5
20260904054524 69 237 8.0 17.0 0.00 0.06 0.00 90 1011.7
20260904054024 69 204 8.0 17.0 0.00 0.06 0.00 90 1011.7
20260904053523 69 193 9.0 18.0 0.00 0.06 0.00 90 1011.9
20260904053022 69 177 9.0 19.0 0.00 0.06 0.00 90 1011.9
20260904052523 69 229 10.0 20.0 0.00 0.06 0.00 90 1012.0
20260904052024 69 213 9.0 27.0 0.00 0.06 0.00 90 1012.1
20260904051525 69 272 7.0 27.0 0.00 0.06 0.00 90 1012.1
20260904051139 69 217 10.0 21.0 0.00 0.06 0.00 89 1012.2
20260904051047 69 210 8.0 18.0 0.00 0.06 0.00 89 1012.3
20260904050021 69 222 11.0 21.0 0.00 0.06 0.00 89 1012.5
20260904045655 69 204 10.0 27.0 0.00 0.06 0.00 89 1012.6
20260904045552 69 241 12.0 27.0 0.00 0.06 0.00 89 1012.5
20260904044634 69 237 9.0 27.0 0.00 0.06 0.00 89 1012.7
20260904044544 69 197 9.0 23.0 0.00 0.06 0.00 89 1012.7
20260904043522 69 215 10.0 27.0 0.00 0.06 0.00 89 1012.7
20260904043022 69 210 9.0 18.0 0.00 0.06 0.00 89 1012.8
20260904042519 69 179 8.0 18.0 0.00 0.06 0.00 89 1012.8
20260904042017 69 255 9.0 18.0 0.00 0.06 0.00 89 1013.0
20260904041957 69 197 8.0 18.0 0.00 0.06 0.00 89 1013.0
20260904041018 69 182 9.0 18.0 0.00 0.06 0.00 89 1013.1
20260904040518 69 216 10.0 23.0 0.00 0.06 0.00 89 1013.1
20260904040019 69 236 9.0 23.0 0.00 0.06 0.00 89 1013.2
20260904035522 69 207 9.0 20.0 0.00 0.06 0.00 89 1013.3
20260904035018 69 214 10.0 21.0 0.00 0.06 0.00 89 1013.3
20260904034521 69 258 10.0 21.0 0.00 0.06 0.00 89 1013.2
20260904034018 69 208 9.0 21.0 0.00 0.06 0.00 89 1013.2
20260904033518 69 245 10.0 19.0 0.00 0.06 0.00 89 1013.3
20260904033017 69 178 10.0 19.0 0.00 0.06 0.00 89 1013.3
20260904032518 69 194 8.0 19.0 0.00 0.06 0.00 89 1013.4
20260904032015 69 218 9.0 23.0 0.00 0.06 0.00 89 1013.4
20260904031515 69 164 9.0 23.0 0.00 0.06 0.00 89 1013.4
20260904031016 69 172 8.0 16.0 0.00 0.06 0.00 89 1013.5
20260904030515 69 243 9.0 20.0 0.00 0.06 0.00 89 1013.5
20260904030504 69 177 8.0 20.0 0.00 0.06 0.00 89 1013.6
20260904025519 69 216 8.0 20.0 0.00 0.06 0.00 90 1013.6
20260904025010 69 223 8.0 20.0 0.00 0.06 0.00 90 1013.7
20260904024509 69 227 9.0 19.0 0.00 0.06 0.00 90 1013.7
20260904024013 69 204 9.0 19.0 0.00 0.06 0.00 90 1013.7
20260904023950 69 214 8.0 16.0 0.00 0.06 0.00 90 1013.9
20260904023011 69 239 9.0 17.0 0.00 0.06 0.00 90 1013.8
20260904022509 69 205 9.0 17.0 0.00 0.06 0.00 90 1013.9
20260904022033 69 197 8.0 19.0 0.00 0.06 0.00 91 1014.0
20260904022016 69 225 8.0 16.0 0.00 0.06 0.00 90 1013.9
20260904021009 69 244 7.0 19.0 0.00 0.06 0.00 91 1013.9
20260904020509 69 205 6.0 16.0 0.00 0.06 0.00 91 1014.1
20260904020021 69 204 7.0 18.0 0.00 0.06 0.00 91 1014.2
20260904015503 69 163 7.0 19.0 0.00 0.06 0.00 91 1014.3
20260904015003 69 231 7.0 19.0 0.00 0.06 0.00 91 1014.3
20260904014502 69 229 6.0 17.0 0.00 0.06 0.00 92 1014.3
20260904014006 69 270 7.0 15.0 0.00 0.06 0.00 92 1014.4
20260904013503 69 220 8.0 15.0 0.00 0.06 0.00 92 1014.4
20260904013003 69 260 6.0 14.0 0.00 0.06 0.00 92 1014.5
20260904012509 69 215 5.0 12.0 0.00 0.06 0.00 92 1014.5
20260904012021 69 232 7.0 15.0 0.00 0.06 0.00 92 1014.7
20260904012005 69 229 6.0 12.0 0.00 0.06 0.00 92 1014.6
20260904011456 69 229 8.0 15.0 0.00 0.06 0.00 91 1015.0
20260904011446 69 207 8.0 16.0 0.00 0.06 0.00 92 1014.9
20260904011207 69 219 8.0 16.0 0.00 0.06 0.00 92 1014.8
20260904005957 69 125 9.0 17.0 0.00 0.06 0.00 91 1015.0
20260904005005 69 250 9.0 20.0 0.00 0.06 0.00 91 1015.0
20260904004506 69 216 8.0 20.0 0.00 0.06 0.00 91 1015.1
20260904004032 69 222 7.0 16.0 0.00 0.06 0.00 90 1015.3
20260904004022 69 224 8.0 16.0 0.00 0.06 0.00 90 1015.3
20260904004006 69 199 7.0 15.0 0.00 0.06 0.00 90 1015.1
20260904003516 69 201 7.0 15.0 0.00 0.06 0.00 90 1015.2
20260904002006 69 217 7.0 16.0 0.00 0.06 0.00 90 1015.3
20260904001606 69 206 7.0 18.0 0.00 0.06 0.00 90 1015.4
20260904001524 69 193 8.0 16.0 0.00 0.06 0.00 90 1015.4
20260904000504 70 218 6.0 18.0 0.00 0.06 0.00 90 1015.4
20260904000012 70 213 6.0 14.0 0.00 0.06 0.00 90 1015.4
20260903235504 70 243 5.0 14.0 0.00 0.06 0.00 90 1015.5
20260903235002 70 189 6.0 11.0 0.00 0.06 0.00 90 1015.6
20260903234507 70 203 6.0 13.0 0.00 0.06 0.00 90 1015.6
20260903234004 70 191 6.0 13.0 0.00 0.06 0.00 90 1015.7
20260903233503 70 266 6.0 14.0 0.00 0.06 0.00 90 1015.8
20260903233004 69 200 7.0 16.0 0.00 0.06 0.00 90 1015.7
20260903232626 70 223 5.0 12.0 0.00 0.06 0.00 90 1015.7
20260903232529 69 203 6.0 16.0 0.00 0.06 0.00 90 1015.6
20260903231504 69 185 6.0 12.0 0.00 0.06 0.00 90 1015.9
20260903231002 70 221 7.0 14.0 0.00 0.06 0.00 90 1016.0
20260903230501 70 235 7.0 14.0 0.00 0.06 0.00 90 1016.0
20260903225958 70 219 7.0 13.0 0.00 0.06 0.00 90 1016.0
20260903225500 69 204 7.0 17.0 0.00 0.06 0.00 90 1016.0
20260903224956 69 201 7.0 17.0 0.00 0.06 0.00 90 1016.0
20260903224501 69 190 7.0 14.0 0.00 0.06 0.00 90 1016.1
20260903223957 69 204 6.0 16.0 0.00 0.06 0.00 90 1016.2
20260903223459 69 183 5.0 16.0 0.00 0.06 0.00 90 1016.2
20260903222959 69 210 5.0 11.0 0.00 0.06 0.00 90 1016.3
20260903222500 70 238 4.0 11.0 0.00 0.06 0.00 90 1016.5
20260903222000 69 208 4.0 9.0 0.00 0.06 0.00 90 1016.4
20260903221500 70 227 5.0 11.0 0.00 0.06 0.00 90 1016.5
20260903221453 70 214 6.0 13.0 0.00 0.06 0.00 90 1016.6
20260903220502 70 231 7.0 13.0 0.00 0.06 0.00 90 1016.5
20260903215957 70 218 6.0 11.0 0.00 0.06 0.06 90 1016.5
20260903215946 70 166 6.0 13.0 0.00 0.06 0.06 90 1016.6
20260903214957 70 220 7.0 14.0 0.00 0.06 0.06 90 1016.7
20260903214450 69 158 8.0 17.0 0.00 0.06 0.06 90 1016.7
20260903213945 69 181 7.0 17.0 0.00 0.06 0.06 90 1016.8
20260903213446 69 207 5.0 13.0 0.00 0.06 0.06 90 1016.8
20260903212947 69 159 5.0 13.0 0.00 0.06 0.06 90 1016.9
20260903212446 69 237 5.0 13.0 0.00 0.06 0.06 90 1016.9
20260903211947 69 235 6.0 15.0 0.00 0.06 0.06 90 1016.9
20260903211532 69 241 6.0 14.0 0.00 0.06 0.06 90 1016.8
20260903211522 69 220 5.0 14.0 0.00 0.06 0.06 91 1016.9
20260903211454 69 177 6.0 15.0 0.00 0.06 0.06 90 1016.7
20260903210441 69 152 5.0 10.0 0.00 0.06 0.06 91 1017.0
20260903205448 69 216 6.0 16.0 0.00 0.06 0.06 91 1017.2
20260903204947 69 231 7.0 16.0 0.00 0.06 0.06 91 1017.3
20260903204446 69 197 6.0 11.0 0.00 0.06 0.06 92 1017.4
20260903203947 69 225 5.0 9.0 0.00 0.06 0.06 92 1017.4
20260903203453 69 212 4.0 9.0 0.00 0.06 0.06 92 1017.3
20260903203442 69 229 4.0 9.0 0.00 0.06 0.06 92 1017.5
20260903202437 69 189 4.0 9.0 0.00 0.06 0.06 92 1017.3
20260903201940 69 211 4.0 8.0 0.00 0.06 0.06 92 1017.4
20260903201438 69 215 4.0 10.0 0.00 0.06 0.06 91 1017.4
20260903200934 69 176 4.0 10.0 0.00 0.06 0.06 91 1017.3
20260903200439 69 217 4.0 10.0 0.00 0.06 0.06 91 1017.4
20260903195936 69 212 4.0 10.0 0.00 0.06 0.06 91 1017.4
20260903195435 69 205 4.0 9.0 0.00 0.06 0.06 91 1017.4
20260903195417 69 230 5.0 13.0 0.00 0.06 0.06 90 1017.4
20260903195102 69 199 3.0 9.0 0.00 0.06 0.06 91 1017.5
20260903194719 69 199 5.0 13.0 0.00 0.06 0.06 90 1017.3
20260903194529 69 230 4.0 12.0 0.00 0.06 0.06 90 1017.5
20260903192935 69 177 5.0 14.0 0.00 0.06 0.06 90 1017.3
20260903192439 69 228 5.0 14.0 0.00 0.06 0.06 90 1017.5
20260903191935 70 242 5.0 10.0 0.00 0.06 0.06 89 1017.4
20260903191923 70 208 5.0 12.0 0.00 0.06 0.06 89 1017.5
20260903190941 70 239 5.0 12.0 0.00 0.06 0.06 89 1017.4
20260903190438 70 194 5.0 13.0 0.00 0.06 0.06 88 1017.4
20260903185936 70 222 6.0 13.0 0.00 0.06 0.06 88 1017.5
20260903185435 70 258 6.0 14.0 0.00 0.06 0.06 88 1017.5
20260903184933 70 246 7.0 14.0 0.00 0.06 0.06 88 1017.5
20260903184433 70 234 6.0 14.0 0.00 0.06 0.06 87 1017.5
20260903183932 70 219 6.0 13.0 0.00 0.06 0.06 87 1017.5
20260903183434 70 220 6.0 16.0 0.00 0.06 0.06 87 1017.5
20260903182936 70 220 6.0 16.0 0.00 0.06 0.06 87 1017.6
20260903182520 70 228 6.0 15.0 0.00 0.06 0.06 87 1017.4
20260903182118 70 277 5.0 14.0 0.00 0.06 0.06 87 1017.5
20260903182100 71 217 6.0 15.0 0.00 0.06 0.06 86 1017.6
20260903182001 70 229 6.0 14.0 0.00 0.06 0.06 87 1017.4
20260903181057 70 237 5.0 12.0 0.00 0.06 0.06 87 1017.6
20260903180536 71 184 5.0 12.0 0.00 0.06 0.06 86 1017.6
20260903174935 71 235 6.0 14.0 0.00 0.06 0.06 86 1017.5
20260903174430 71 244 7.0 13.0 0.00 0.06 0.06 86 1017.6
20260903173930 71 194 8.0 14.0 0.00 0.06 0.06 85 1017.8
20260903173432 72 230 8.0 16.0 0.00 0.06 0.06 85 1017.8
20260903172959 71 228 9.0 21.0 0.00 0.06 0.06 86 1017.8
20260903172936 72 262 8.0 16.0 0.00 0.06 0.06 86 1017.8
20260903171931 71 221 8.0 21.0 0.00 0.06 0.06 85 1017.8
20260903171430 71 234 7.0 14.0 0.00 0.06 0.06 85 1017.8
20260903171006 71 219 8.0 17.0 0.00 0.06 0.06 85 1017.5
20260903170941 71 225 8.0 16.0 0.00 0.06 0.06 85 1017.6
20260903165931 71 232 8.0 17.0 0.00 0.06 0.06 85 1017.5
20260903165430 72 219 9.0 17.0 0.00 0.06 0.06 84 1017.6
20260903164931 72 192 9.0 19.0 0.00 0.06 0.06 84 1017.6
20260903164433 72 240 9.0 19.0 0.00 0.06 0.06 84 1017.6
20260903163933 72 187 10.0 19.0 0.00 0.06 0.06 83 1017.5
20260903163433 72 210 10.0 19.0 0.00 0.06 0.06 83 1017.6
20260903163039 72 190 8.0 18.0 0.00 0.06 0.06 84 1018.0
20260903163029 72 233 8.0 18.0 0.00 0.06 0.06 83 1018.0
20260903162945 72 243 8.0 18.0 0.00 0.06 0.06 84 1017.8
20260903161434 72 256 9.0 17.0 0.00 0.06 0.06 83 1017.9
20260903160932 72 220 9.0 17.0 0.00 0.06 0.06 83 1017.8
20260903160537 73 249 10.0 22.0 0.00 0.06 0.06 81 1017.8
20260903160451 73 233 9.0 18.0 0.00 0.06 0.06 82 1017.5
20260903160140 72 222 10.0 19.0 0.00 0.06 0.06 82 1017.6
20260903154931 73 228 9.0 22.0 0.00 0.06 0.06 81 1017.8
20260903154430 73 224 8.0 14.0 0.00 0.06 0.06 81 1017.9
20260903153930 73 234 9.0 21.0 0.00 0.06 0.06 80 1017.9
20260903153432 73 237 9.0 21.0 0.00 0.06 0.06 80 1018.0
20260903152934 73 194 8.0 19.0 0.00 0.06 0.06 80 1018.0
20260903152432 73 201 9.0 17.0 0.00 0.06 0.06 80 1017.9
20260903152425 73 225 8.0 17.0 0.00 0.06 0.06 79 1018.0
20260903151433 74 204 9.0 17.0 0.00 0.06 0.06 78 1018.0
20260903150931 74 231 9.0 18.0 0.00 0.06 0.06 78 1018.1
20260903150432 74 227 10.0 18.0 0.00 0.06 0.06 78 1018.0
20260903150000 73 236 12.0 26.0 0.00 0.06 0.06 77 1017.9
20260903145938 73 241 11.0 19.0 0.00 0.06 0.06 78 1017.9
20260903144931 74 237 13.0 26.0 0.00 0.06 0.06 77 1017.8
20260903144432 73 268 14.0 29.0 0.00 0.06 0.06 77 1017.9
20260903143933 73 190 14.0 29.0 0.00 0.06 0.06 77 1017.8
20260903143432 73 231 13.0 25.0 0.00 0.06 0.06 79 1017.8
20260903142930 73 240 13.0 25.0 0.00 0.06 0.06 79 1017.8
20260903142432 73 199 13.0 26.0 0.00 0.06 0.06 78 1017.8
20260903141934 73 229 14.0 26.0 0.00 0.06 0.06 78 1017.6
20260903141430 74 211 13.0 24.0 0.00 0.06 0.06 78 1017.8
20260903140950 73 233 11.0 25.0 0.00 0.06 0.06 80 1017.8
20260903140933 74 258 11.0 22.0 0.00 0.06 0.06 79 1017.8
20260903140644 73 242 10.0 25.0 0.00 0.06 0.06 81 1017.9
20260903135423 73 197 10.0 24.0 0.00 0.06 0.06 80 1017.7
20260903134919 73 234 12.0 21.0 0.00 0.06 0.06 81 1017.9
20260903134413 73 256 13.0 23.0 0.00 0.06 0.06 79 1017.9
20260903133907 73 243 12.0 23.0 0.00 0.06 0.06 77 1017.8
20260903133518 73 273 11.0 23.0 0.00 0.06 0.06 77 1017.7
20260903133422 73 272 11.0 23.0 0.00 0.06 0.06 79 1017.8
20260903132405 73 195 12.0 26.0 0.00 0.06 0.06 79 1017.7
20260903131909 72 252 14.0 29.0 0.00 0.06 0.06 78 1017.6
20260903131408 73 253 13.0 29.0 0.00 0.06 0.06 77 1017.5
20260903131358 73 270 12.0 20.0 0.00 0.06 0.06 77 1017.6
20260903130504 73 243 12.0 24.0 0.00 0.06 0.06 79 1017.6
20260903130425 74 233 13.0 24.0 0.00 0.06 0.06 79 1017.6
20260903125647 71 226 12.0 24.0 0.00 0.06 0.06 82 1017.6
20260903125510 73 249 12.0 24.0 0.00 0.06 0.06 80 1017.6
20260903125123 71 225 13.0 24.0 0.00 0.06 0.06 82 1017.6
20260903124935 71 210 11.0 24.0 0.00 0.06 0.06 82 1017.5
20260903123402 71 224 11.0 23.0 0.00 0.06 0.06 83 1017.6
20260903122908 71 219 11.0 23.0 0.00 0.06 0.06 83 1017.5
20260903122403 71 239 11.0 18.0 0.00 0.06 0.06 84 1017.5
20260903121926 71 221 11.0 25.0 0.00 0.06 0.06 84 1017.4
20260903121423 71 212 12.0 25.0 0.00 0.06 0.06 84 1017.4
20260903120921 72 256 13.0 25.0 0.01 0.06 0.06 85 1017.4
20260903115902 71 210 11.0 26.0 0.01 0.06 0.06 84 1017.4
20260903115409 72 237 9.0 19.0 0.01 0.06 0.06 84 1017.3
20260903115200 73 218 10.0 25.0 0.01 0.06 0.06 85 1017.3
20260903114935 72 227 10.0 19.0 0.01 0.06 0.06 85 1017.3
20260903113902 72 256 11.0 25.0 0.01 0.06 0.06 85 1017.2
20260903113505 72 234 11.0 25.0 0.01 0.06 0.06 87 1017.3
20260903113003 71 249 11.0 24.0 0.01 0.06 0.06 89 1017.3
20260903111902 70 243 10.0 24.0 0.01 0.06 0.06 90 1017.4
20260903111400 70 137 9.0 17.0 0.01 0.06 0.05 88 1017.4
20260903110901 71 254 10.0 21.0 0.00 0.05 0.05 87 1017.4
20260903110411 71 223 11.0 21.0 0.00 0.05 0.05 86 1017.3
20260903105903 71 235 11.0 23.0 0.00 0.05 0.05 86 1017.4
20260903105357 71 236 13.0 27.0 0.00 0.05 0.05 86 1017.4
20260903105343 71 199 15.0 30.0 0.00 0.05 0.05 86 1017.4
20260903104356 71 273 13.0 30.0 0.00 0.05 0.05 86 1017.3
20260903103856 71 257 11.0 30.0 0.00 0.05 0.05 87 1017.1
20260903103357 71 243 12.0 30.0 0.00 0.05 0.05 87 1017.2
20260903102858 71 225 11.0 21.0 0.00 0.05 0.05 88 1017.1
20260903102400 71 250 11.0 20.0 0.00 0.05 0.05 89 1017.2
20260903102341 70 240 11.0 20.0 0.00 0.05 0.05 90 1017.3
20260903101358 69 227 10.0 19.0 0.00 0.05 0.05 92 1017.3
20260903100858 69 237 9.0 19.0 0.00 0.05 0.05 93 1017.1
20260903100358 69 218 8.0 17.0 0.00 0.05 0.05 94 1017.1
20260903095858 68 219 8.0 17.0 0.00 0.05 0.05 94 1017.1
20260903095838 68 222 9.0 21.0 0.00 0.05 0.05 95 1017.1
20260903094856 68 245 9.0 21.0 0.00 0.05 0.05 95 1017.2
20260903094839 68 247 8.0 17.0 0.00 0.05 0.05 96 1017.1
20260903094609 68 189 9.0 19.0 0.00 0.05 0.05 96 1017.1
20260903093357 68 229 7.0 15.0 0.00 0.05 0.05 96 1017.1
20260903093346 67 204 8.0 16.0 0.00 0.05 0.05 97 1017.0
20260903092843 67 204 8.0 18.0 0.00 0.05 0.05 97 1017.1
20260903092611 67 167 7.0 17.0 0.00 0.05 0.05 97 1017.1
20260903091354 67 242 8.0 18.0 0.00 0.05 0.05 97 1017.1
20260903090857 67 210 7.0 17.0 0.01 0.05 0.05 97 1016.9
20260903090847 67 185 8.0 17.0 0.01 0.05 0.05 97 1016.9
20260903085851 67 171 8.0 16.0 0.01 0.05 0.05 98 1016.8
20260903085840 67 222 7.0 15.0 0.01 0.05 0.05 98 1016.8
20260903084853 66 244 7.0 20.0 0.01 0.05 0.05 97 1016.8
20260903084838 66 211 7.0 20.0 0.01 0.05 0.05 97 1016.6
20260903083852 66 247 6.0 16.0 0.01 0.05 0.05 97 1016.6
20260903083353 66 225 7.0 15.0 0.02 0.05 0.05 98 1016.5
20260903082855 66 237 7.0 16.0 0.02 0.05 0.05 97 1016.5
20260903082354 65 233 7.0 16.0 0.02 0.05 0.05 97 1016.5
20260903081851 65 179 6.0 16.0 0.02 0.05 0.05 97 1016.5
20260903081352 65 218 6.0 16.0 0.02 0.05 0.05 97 1016.6
20260903080847 65 225 7.0 16.0 0.02 0.04 0.04 97 1016.6
20260903080348 65 177 8.0 16.0 0.02 0.04 0.04 97 1016.6
20260903075851 65 197 7.0 15.0 0.02 0.04 0.04 97 1016.7
20260903075347 65 232 7.0 14.0 0.02 0.04 0.04 97 1016.6
20260903074846 65 177 7.0 17.0 0.02 0.04 0.04 97 1016.4
20260903074341 65 212 7.0 17.0 0.02 0.04 0.04 96 1016.5
20260903073842 65 187 7.0 17.0 0.02 0.04 0.04 96 1016.5
20260903073344 65 239 8.0 17.0 0.02 0.03 0.03 96 1016.5
20260903072841 65 194 8.0 16.0 0.02 0.03 0.03 96 1016.7
20260903072342 65 229 8.0 16.0 0.02 0.03 0.03 96 1016.6
20260903071844 65 279 8.0 17.0 0.02 0.03 0.03 96 1016.5
20260903071341 65 214 9.0 18.0 0.02 0.03 0.03 96 1016.5
20260903070838 65 240 8.0 18.0 0.01 0.02 0.02 96 1016.7
20260903070336 65 193 7.0 17.0 0.02 0.02 0.02 96 1016.7
20260903065838 65 220 7.0 15.0 0.02 0.02 0.02 95 1016.7
20260903065337 65 158 7.0 16.0 0.02 0.02 0.02 95 1016.7
20260903064838 65 244 7.0 16.0 0.02 0.02 0.02 95 1016.6
20260903064338 65 225 7.0 15.0 0.02 0.02 0.02 95 1016.6
20260903063835 65 231 7.0 14.0 0.02 0.02 0.02 94 1016.7
20260903063337 65 197 7.0 16.0 0.02 0.02 0.02 94 1016.7